sat.trackr.live / text

‹ back to catalog

STARLINK-3868

NORAD 52649 · 2022-052BD

PAYLOAD ACTIVE UNKNOWN

§ Identity

Operator
Country
US
Launch date
2022-05-14
Launch site
AFETR
Launch vehicle
Mass (kg)
RCS (m²)

Purposes: comms

External: N2YO · Heavens-Above · Gunter

§ Orbital elements

Epoch: 2026-05-24T17:42:45.830880Z

Period
95.44 min
Inclination
53.2147°
Eccentricity
0.0001310
Mean motion
15.08836151 rev/d
Perigee alt
538.8 km
Apogee alt
540.7 km
Semi-major
6,917.9 km
B*
2.9137e-5
RAAN
277.5780°
Arg perigee
93.6623°
Mean anomaly
266.4519°
Rev number
22,262

§ Raw data

STARLINK-38681 52649U 22052BD  26144.73803045  .00000176  00000+0  29137-4 0  99932 52649  53.2147 277.5780 0001310  93.6623 266.4519 15.08836151222625

JSON: /api/v1/satellites/52649 · /tle

For live sub-satellite position, see the globe view (requires WebGL).

§ Visibility from observer

Set your observer location to see the next 7 days of passes ≥ 10°. The values pass through the URL so the page stays shareable.

No JS? Fill the form by hand. The geolocation button needs JavaScript.